Regional Weather Roundup
Issued by NWS

Home | Current Version | Previous Version | Graphics & Text | Print | Product List | Glossary On
Versions: 1 2 3 4 5 6 7 8 9 10 11 12 13 14 15 16 17 18 19 20 21 22 23 24 25 26 27 28 29 30 31 32 33 34 35 36 37 38 39 40 41 42 43 44 45 46 47 48 49 50
000
ASUS43 KOAX 232202
RWRNE

WEATHER ROUNDUP FOR NEBRASKA
NATIONAL WEATHER SERVICE OMAHA NE
400 PM CST SUN NOV 23 2014

NOTES: SATELLITE DATA IS BEING USED TO AUGMENT CLOUD COVER ABOVE
       12000 FEET.
       "FAIR" INDICATES FEW OR NO CLOUDS BELOW 12,000 FEET WITH NO
       SIGNIFICANT WEATHER AND/OR OBSTRUCTIONS TO VISIBILITY.

  * THESE STATIONS DO NOT REPORT WEATHER SUCH AS RAIN...SNOW OR FOG.

NEZ001>004-019>022-054>056-232300-
NEBRASKA PANHANDLE

CITY           SKY/WX    TMP DP  RH WIND       PRES   REMARKS
SCOTTSBLUFF    SUNNY     42  11  28 NW29G39   29.78R
ALLIANCE       SUNNY     40  14  34 N33G44    29.74R WCI  28
CHADRON        MOSUNNY   41  20  43 NW24G37   29.77S
SIDNEY         SUNNY     42  11  28 N30G41    29.74S
$$

NEZ057>060-069>072-079>082-232300-
SOUTHWEST NEBRASKA

CITY           SKY/WX    TMP DP  RH WIND       PRES   REMARKS
NORTH PLATTE   SUNNY     48  15  26 N25G35    29.66R
IMPERIAL       MOSUNNY   46  10  23 N33G44    29.71R
MCCOOK         MOSUNNY   49  13  23 N24G38    29.65R
$$

NEZ005>010-023>029-035>040-094-232300-
NORTH CENTRAL NEBRASKA

CITY           SKY/WX    TMP DP  RH WIND       PRES   REMARKS
VALENTINE      PTSUNNY   44  21  40 NW31G44   29.64R
AINSWORTH      PTSUNNY   42  22  44 NW33G40   29.64R
BROKEN BOW     PTSUNNY   49  19  30 NW37G48   29.60R
ORD            CLOUDY    46  22  38 N20G30    29.58R
$$

NEZ041-046>049-061>064-073>077-083>087-232300-
SOUTH CENTRAL NEBRASKA

CITY           SKY/WX    TMP DP  RH WIND       PRES   REMARKS
AURORA         CLOUDY    43  32  65 N16       29.57R
HASTINGS       CLOUDY    44  28  53 N16       29.57R
KEARNEY *      CLOUDY    46  19  34 NW25G33   29.60R
YORK           CLOUDY    41  34  75 N13G18    29.55S
$$

NEZ011>018-030>034-042>045-232300-
NORTHEAST NEBRASKA

CITY           SKY/WX    TMP DP  RH WIND       PRES   REMARKS
NORFOLK        CLOUDY    44  29  55 NW26G36   29.55R
BLAIR          CLOUDY    43  36  75 NW16      29.50R
COLUMBUS *     CLOUDY    43  30  61 N15       29.56R
TEKAMAH        CLOUDY    45  35  68 NW20      29.53R
$$

NEZ050>053-065>068-078-088>093-232300-
SOUTHEAST NEBRASKA

CITY           SKY/WX    TMP DP  RH WIND       PRES   REMARKS
LINCOLN        CLOUDY    44  32  62 N25G33    29.53S
OMAHA EPPLEY   CLOUDY    43  35  73 N21G29    29.51R
FALLS CITY     CLOUDY    46  38  73 N18G29    29.43R
$$

NEZ044-045-051>053-067-232300-
OMAHA AREA

CITY           SKY/WX    TMP DP  RH WIND       PRES   REMARKS
OMAHA EPPLEY   CLOUDY    43  35  73 N21G29    29.51R
BLAIR          CLOUDY    43  36  75 NW16      29.50R
OFFUTT AFB     LGT RAIN  42  36  79 N24G31    29.49R
$$



USA.gov is the U.S. government's official web portal to all federal, state and local government web resources and services.